Cloud_Cover
0 5 2 5 3 5 5 3 0 0 0 0 0 0 0 0 0 0 0 0 0 0 0 0 0 0 0 0 2 0 27 61 0 0 0 0 0 0 0 0 0 9 5 7 84
0 4 5 2 5 5 5 1 0 0 0 0 0 0 0 0 0 0 3 0 0 0 0 0 0 0 0 0 0 23 18 0 0 1 0 0 0 0 0 0 0 0 5 7 100
3 5 5 5 13 7 2 0 4 0 0 5 0 4 0 0 0 0 0 0 0 0 0 0 0 0 0 0 0 0 18 0 0 4 59 21 3 0 0 0 0 0 0 5 100
5 5 5 8 82 49 5 5 5 5 3 5 4 5 5 0 0 0 0 0 0 0 0 0 0 0 0 0 0 0 0 0 0 0 1 20 67 1 0 0 0 0 0 0 72
5 10 5 3 4 4 5 1 2 5 5 5 5 5 5 1 1 5 0 3 1 0 0 0 3 0 0 0 0 0 0 0 0 0 0 0 0 3 25 0 0 0 0 0 3
5 5 2 0 2 5 5 5 5 5 5 5 5 5 5 4 38 5 5 5 2 0 0 2 5 2 3 5 5 1 2 0 0 0 0 0 0 0 0 4 3 0 0 0 0
5 5 5 4 1 5 5 5 5 5 5 5 5 5 5 5 5 5 5 5 2 0 0 0 0 3 1 5 5 5 5 5 2 0 0 0 2 0 0 3 5 5 0 0 12
5 5 4 0 0 5 5 5 5 5 5 5 5 5 5 5 5 22 40 5 0 0 0 0 0 2 4 4 12 25 37 65 0 0 0 6 7 0 0 0 2 88 8 20 98
5 5 5 5 5 5 5 5 5 5 5 5 5 0 4 5 5 5 3 1 0 0 0 0 1 4 8 84 70 54 48 40 4 0 1 12 3 0 0 0 0 100 73 40 100
5 5 5 5 5 5 5 5 5 5 5 5 5 5 1 1 5 1 0 0 0 0 0 2 5 5 5 99 77 94 97 94 22 4 5 5 4 0 0 0 0 100 85 7 100
5 5 5 5 5 5 22 5 5 5 5 5 0 5 0 1 0 1 0 0 0 0 5 6 43 11 5 81 100 100 97 72 5 5 69 8 5 0 0 0 32 100 100 63 100
5 5 5 5 5 5 5 5 5 5 5 3 5 3 4 5 5 2 0 1 5 5 5 5 5 5 6 80 100 100 100 64 6 5 38 29 6 5 0 0 93 100 100 78 100
5 5 5 5 5 5 5 6 5 5 5 3 2 5 5 5 2 0 0 0 28 6 5 61 2 5 65 77 100 31 88 18 60 61 96 100 62 20 4 0 89 100 96 100 100
5 5 5 5 5 5 5 5 5 4 0 2 5 5 5 0 3 0 0 5 5 5 5 5 4 5 50 100 100 100 10 94 100 100 100 100 97 97 96 79 90 99 94 98 100
5 5 5 5 5 5 6 5 0 0 5 2 0 5 5 5 5 5 1 0 5 5 5 0 5 5 77 98 98 100 99 100 100 100 100 100 95 100 100 100 100 100 100 100 100
5 5 5 5 5 5 5 4 6 24 7 5 0 0 5 2 3 0 0 0 4 3 2 5 4 5 72 73 78 90 100 98 100 100 100 100 95 100 100 100 100 100 100 100 100
5 5 7 22 30 5 5 26 30 30 1 0 2 5 5 5 0 0 3 30 44 59 14 2 2 5 18 92 100 95 99 61 100 98 100 100 100 100 100 100 100 100 100 100 100
99 58 28 5 5 40 29 10 5 5 5 5 5 5 5 5 0 5 5 32 5 67 92 96 7 5 5 94 99 100 100 100 100 100 100 100 100 100 100 100 100 100 100 100 100
36 9 5 5 5 5 5 5 6 5 5 5 5 5 2 3 4 3 64 77 5 37 89 90 5 31 59 86 60 98 99 100 100 100 100 100 100 100 100 100 100 100 100 100 100
53 13 5 5 5 5 5 5 10 58 6 5 36 7 59 23 5 92 92 41 16 6 79 74 73 4 5 19 87 17 100 100 100 100 98 100 100 100 100 100 100 100 100 100 100
100 97 22 5 8 7 5 5 5 15 5 5 19 9 53 99 100 100 67 5 26 5 89 97 99 100 12 46 94 76 100 99 100 100 100 100 100 100 100 100 100 100 100 100 100
100 100 40 67 100 46 5 5 22 31 61 4 5 52 88 39 100 100 91 6 5 5 100 96 99 84 6 88 88 100 100 100 100 100 100 100 100 100 100 100 100 100 100 100 100
100 100 100 69 22 5 5 6 52 62 6 25 51 5 5 7 31 38 5 3 5 5 95 66 50 71 16 59 89 100 100 100 100 100 100 100 100 100 100 100 100 100 100 100 100
100 100 99 89 81 34 5 73 28 15 24 28 25 5 5 5 5 76 5 4 5 5 45 8 96 94 91 84 100 86 100 100 100 100 100 100 99 100 97 100 100 100 100 100 100
100 100 100 100 98 8 23 46 76 40 100 100 6 5 11 66 86 60 5 7 5 8 5 28 97 93 5 31 99 100 100 100 100 98 100 100 100 100 100 100 100 100 100 100 100
100 100 100 100 99 90 8 78 100 100 100 11 5 5 5 81 4 5 59 78 5 44 79 59 59 59 74 76 100 100 100 100 100 70 72 79 100 100 100 86 46 80 100 100 100
100 98 100 100 100 89 94 100 100 100 99 23 10 6 67 5 5 5 18 96 96 100 100 92 88 87 76 5 46 100 100 100 100 81 41 95 89 100 100 100 88 14 52 55 98